Location: Peterborough
(44.3091°N, 78.3197°W)
Time: 00:47:55
(UTC-04:00)

S-56A Canister/Altair - Pass Details

Date: 26 March 2023
Orbit: 639 x 2492 km, 38.9° (Epoch: 02 June)

Event Time Altitude Azimuth Distance (km) Brightness Sun altitude
Rises 23:24:26 0° 274° (W) 5,610 12.4 -36.7°
Reaches altitude 10° 23:27:52 10° 272° (W) 4,781 11.9 -37.1°
Maximum altitude 23:41:49 65° 195° (SSW) 2,668 9.8 -38.4°
Enters shadow 23:42:08 65° 189° (S) 2,671 9.8 -38.5°
